Orbital Elements at Epoch 2459200.5 (2020-Dec-17.0) TDB
Reference: JPL 38 (heliocentric ecliptic J2000)
Element | Value | Uncertainty (1-sigma) | Units |
e | .1526626038029725 | 3.1585e-08 | |
a | 2.93089939608464 | 1.6515e-08 | au |
q | 2.483460662793799 | 9.3096e-08 | au |
i | 7.303371411398075 | 3.4243e-06 | deg |
node | 128.7972301060226 | 3.2942e-05 | deg |
peri | 129.5410968743592 | 3.5849e-05 | deg |
M | 211.708959576331 | 1.5764e-05 | deg |
tp | 2459955.439597898568 (2023-Jan-10.93959790) | 8.3161e-05 | TDB |
period | 1832.735507600534 5.02 | 1.5491e-05 4.241e-08 | d yr |
n | .1964276888329193 | 1.6603e-09 | deg/d |
Q | 3.378338129375481 | 1.9037e-08 | au |
|
| | Orbit Determination Parameters
Additional Information
|